Location: Arlington
(40.6323°N, 74.1651°W)
Time: 08:50:41
(UTC+00:00)

Cosmos 1697 Rocket - Pass Details

Date: 22 November 2019
Orbit: 833 x 842 km, 71.0° (Epoch: 09 December)

Event Time Altitude Azimuth Distance (km) Brightness Sun altitude
Rises 22:24:28 0° 222° (SW) 3,385 7.0 -9.7°
Reaches altitude 10° 22:27:02 10° 229° (SW) 2,453 6.3 -10.1°
Maximum altitude 22:32:21 42° 300° (WNW) 1,177 3.8 -11.1°
Drops below altitude 10° 22:37:43 10° 11° (N) 2,463 4.9 -12.1°
Sets 22:40:18 0° 18° (NNE) 3,399 5.5 -12.5°
